HERMES-3

导读

HERMES-3卫星计划于2025年3月15日发射,目前发射国家尚未确定。作为HERMES系列卫星的一员,HERMES-3的发射备受全球航天界关注。尽管发射主体信息尚未公布,但从预先披露的发射时间来看,该卫星项目已完成前期筹备工作。HERMES系列卫星多聚焦前沿空间技术验证,HERMES-3有望推动相关航天领域技术发展,为人类探索宇宙空间贡献新力量。

Basic Information
目录编号:
63835
目录名称:
HERMES-3
国际标识:
2025-052BR
轨道中心:
EARTH
卫星名称:
HERMES-3
卫星全名:
HERMES-3
卫星状态:
在轨 (已飞行538 天)
发射日期:
2025-03-15 UTC
国别 :
意大利 (IT)
星等 :
--
Orbit Information
数据来源 国际轨道数据
星历时间: 2026-09-02T12:31:43+0800
1天前
查看轨道信息
半长轴: 6834.902km
偏心率: 0.0004996
轨道倾角: 97.373°
近地点辐角 190.249°
升交点赤经 140.781°
平近点角 169.865°
近地点: 453.35km
远地点: 460.18km
周期: 93.726分钟
每日圈数: 15.364003
Detailed Information
使用方式:
暂无
2D Orbit Map
3D Orbit Map
Orbit Altitude Analysis Chart
Orbit Inclination Analysis Chart
Orbit Comprehensive Analysis Chart
View Comprehensive Chart
Conjunction Data List
Event ID Objects TCA Miss Dist (km) Collision Risk Probability Collision Risk Index (CRI) Action
CDM_260904-173605-213906-383521
HERMES-3 (63835)
2026-09-04T
17:36:44+0000
0.332 km
远距离
4.372051E-4 高风险 0.88
CDM_260903-211206-002706-383522
HERMES-3 (63835)
2026-09-03T
21:12:02+0000
0.772 km
远距离
6.360683E-5 中风险 0.71
CDM_260903-023106-383506-445523
HERMES-3 (63835)
2026-09-03T
02:31:56+0000
1.199 km
极远距离
1.430641E-5 中风险 0.58
CDM_260904-235506-383506-534321
HERMES-3 (63835)
2026-09-04T
23:55:47+0000
1.218 km
极远距离
9.063401E-6 低风险 0.54
CDM_260831-155705-319106-383528
HERMES-3 (63835)
2026-08-31T
15:57:43+0000
1.503 km
极远距离
6.736679E-6 低风险 0.52
CDM_260903-210606-383506-616022
HERMES-3 (63835)
2026-09-03T
21:06:16+0000
1.527 km
极远距离
6.303022E-6 低风险 0.51
CDM_260903-041205-255006-383523
HERMES-3 (63835)
2026-09-03T
04:12:30+0000
1.597 km
极远距离
4.72854E-6 低风险 0.48
CDM_260905-030205-299906-383521
HERMES-3 (63835)
2026-09-05T
03:02:18+0000
2.511 km
极远距离
1.707825E-6 低风险 0.4
CDM_260904-233705-854306-383521
HERMES-3 (63835)
2026-09-04T
23:37:42+0000
2.564 km
极远距离
1.6672E-6 低风险 0.39
CDM_260904-160806-383506-468122
HERMES-3 (63835)
2026-09-04T
16:08:10+0000
2.545 km
极远距离
1.624798E-6 低风险 0.39